Weather History for Owensboro, KY

Change the Weather History Date:

Saturday, December 8, 2012

  Actual Average Record
Temperature  
Mean Temperature 54 °F -  
Max Temperature 57 °F 48 °F 69 °F (1966)
Min Temperature 50 °F 31 °F 10 °F (1937)
Degree Days  
Heating Degree Days 12    
Growing Degree Days 4 (Base 50)    
Moisture  
Dew Point 53 °F    
Average Humidity 95    
Maximum Humidity 100    
Minimum Humidity 83    
Precipitation  
Precipitation 0.18 in - - ()
Sea Level Pressure  
Sea Level Pressure 29.92 in    
Wind  
Wind Speed 6 mph (SW)    
Max Wind Speed 10 mph    
Max Gust Speed -    
Visibility 4 miles    
Events Rain    
Averages and records for this station are not official NWS values.
T = Trace of Precipitation, MM = Missing Value Source: NWS Daily Summary

Daily Weather History Graph

Daily Weather History Graph

Search for Another Location

Airport:

Trip Planner

Search our weather history database for the weather conditions in past years. The results will help you decide how hot, cold, wet, or windy it might be!

Date:

Astronomy

Dec. 08, 2012 Rise Set
Actual Time 6:51 AM CST 4:29 PM CST
Civil Twilight 6:22 AM CST 4:58 PM CST
Nautical Twilight 5:49 AM CST 5:31 PM CST
Astronomical Twilight 5:18 AM CST 6:03 PM CST
Moon 1:20 AM CST (12/8) 12:55 PM CST (12/8)
Length of Visible Light 10h 36m
Length of Day
9h 37m
Waning Crescent, 28% of the Moon is Illuminated
Dec 8
Waning Crescent
Dec 13
New
Dec 19
First Quarter
Dec 28
Full
Jan 4
Last Quarter

Hourly Weather History & Observations

Time (CST) Temp. Dew Point Humidity Pressure Visibility Wind Dir Wind Speed Gust Speed Precip Events Conditions
12:05 AM 57.2 °F 57.2 °F 100% 29.88 in 4.0 mi SSW 6.9 mph - N/A   Mostly Cloudy
12:56 AM 56.8 °F 56.8 °F 100% 29.86 in 1.8 mi South 5.8 mph - 0.01 in Rain Rain
1:17 AM 57.2 °F 57.2 °F 100% 29.86 in 2.0 mi South 4.6 mph - 0.01 in Rain Light Rain
1:25 AM 57.2 °F 57.2 °F 100% 29.86 in 2.0 mi South 3.5 mph - 0.01 in Rain Light Rain
1:47 AM 57.2 °F 57.2 °F 100% 29.86 in 1.8 mi SSW 3.5 mph - 0.02 in Rain Light Rain
1:56 AM 56.8 °F 56.8 °F 100% 29.86 in 1.2 mi SSW 5.8 mph - 0.03 in Rain Light Rain
2:12 AM 57.2 °F 57.2 °F 100% 29.86 in 1.0 mi SW 3.5 mph - 0.04 in Rain Heavy Rain
2:14 AM 57.2 °F 57.2 °F 100% 29.86 in 0.8 mi SW 5.8 mph - 0.05 in Rain Heavy Rain
2:37 AM 57.2 °F 57.2 °F 100% 29.86 in 1.2 mi SSW 8.1 mph - 0.13 in Rain Light Rain
2:42 AM 57.2 °F 57.2 °F 100% 29.86 in 2.0 mi SSW 5.8 mph - 0.13 in Rain Light Rain
2:56 AM 57.9 °F 57.9 °F 100% 29.86 in 4.0 mi SW 5.8 mph - 0.13 in   Overcast
3:56 AM 57.9 °F 57.9 °F 100% 29.86 in 4.0 mi SW 6.9 mph - N/A   Overcast
4:30 AM 57.2 °F 57.2 °F 100% 29.86 in 4.0 mi SW 8.1 mph - N/A   Overcast
4:49 AM 57.2 °F 57.2 °F 100% 29.86 in 4.0 mi WNW 3.5 mph - 0.00 in Rain Light Rain
4:56 AM 57.9 °F 57.9 °F 100% 29.86 in 3.0 mi WSW 6.9 mph - 0.00 in Rain Light Rain
5:56 AM 57.9 °F 57.9 °F 100% 29.87 in 3.0 mi SW 6.9 mph - 0.01 in   Overcast
6:56 AM 57.9 °F 56.8 °F 96% 29.89 in 3.0 mi SW 6.9 mph - 0.00 in   Overcast
7:56 AM 57.9 °F 56.8 °F 96% 29.91 in 3.0 mi West 9.2 mph - N/A   Overcast
8:56 AM 54.9 °F 52.9 °F 93% 29.94 in 4.0 mi North 5.8 mph - 0.00 in   Overcast
9:56 AM 54.9 °F 52.0 °F 90% 29.94 in 5.0 mi North 3.5 mph - N/A   Overcast
10:56 AM 57.9 °F 52.9 °F 83% 29.95 in 7.0 mi Variable 4.6 mph - 0.00 in   Overcast
11:56 AM 56.8 °F 52.0 °F 84% 29.94 in 7.0 mi NNW 6.9 mph - N/A   Overcast
12:56 PM 55.9 °F 52.0 °F 87% 29.94 in 10.0 mi NW 5.8 mph - N/A   Overcast
1:56 PM 55.9 °F 52.0 °F 87% 29.93 in 8.0 mi North 8.1 mph - N/A   Overcast
2:56 PM 54.0 °F 50.9 °F 89% 29.94 in 5.0 mi NNW 8.1 mph - N/A   Overcast
3:56 PM 52.9 °F 50.9 °F 93% 29.95 in 6.0 mi NNE 6.9 mph - N/A   Overcast
4:56 PM 52.0 °F 48.9 °F 89% 29.96 in 8.0 mi NNE 8.1 mph - N/A   Overcast
5:56 PM 50.0 °F 48.9 °F 96% 29.98 in 5.0 mi NNE 10.4 mph - N/A   Overcast
6:32 PM 50.0 °F 48.2 °F 94% 29.98 in 6.0 mi NNE 10.4 mph - N/A   Overcast
6:56 PM 50.0 °F 46.9 °F 89% 29.99 in 7.0 mi NE 9.2 mph - N/A   Overcast
8:14 PM 50.0 °F 46.4 °F 87% 29.99 in 6.0 mi NE 6.9 mph - N/A   Overcast
8:56 PM 50.0 °F 47.8 °F 92% 29.99 in 5.0 mi NE 8.1 mph - 0.00 in   Overcast
9:56 PM 50.0 °F 47.8 °F 92% 29.99 in 5.0 mi ENE 8.1 mph - 0.00 in   Overcast
10:05 PM 50.0 °F 48.2 °F 94% 29.99 in 5.0 mi ENE 5.8 mph - N/A   Overcast
10:43 PM 50.0 °F 48.2 °F 94% 29.98 in 5.0 mi East 5.8 mph - N/A   Mostly Cloudy
10:56 PM 50.0 °F 48.9 °F 96% 29.98 in 5.0 mi East 6.9 mph - N/A   Mostly Cloudy
11:07 PM 50.0 °F 48.2 °F 94% 29.97 in 5.0 mi East 5.8 mph - N/A   Mostly Cloudy
11:18 PM 50.0 °F 48.2 °F 94% 29.96 in 5.0 mi East 8.1 mph - N/A   Mostly Cloudy
11:56 PM 52.0 °F 50.0 °F 93% 29.97 in 6.0 mi East 4.6 mph - N/A   Overcast